Location: Borea
(45.6167°N, 23.0167°E)
Time: 11:55:15
(UTC+00:00)

Cosmos 1954 Rocket - Pass Details

Date: 03 February 2023
Orbit: 751 x 780 km, 74.0° (Epoch: 31 March)

Event Time Altitude Azimuth Distance (km) Brightness Sun altitude
Rises 16:29:00 0° 191° (S) 3,231 7.6 -9.5°
Reaches altitude 10° 16:31:23 10° 188° (S) 2,304 6.8 -9.9°
Maximum altitude 16:36:34 65° 107° (ESE) 841 4.0 -10.8°
Drops below altitude 10° 16:41:43 10° 27° (NNE) 2,301 6.1 -11.7°
Sets 16:44:06 0° 24° (NNE) 3,227 6.9 -12.1°
Enters shadow 16:44:11 - 24° (NNE) 3,259 6.9 -12.1°
